Weather in Donetsk

Russia / Rostov Oblast     48°20′14″N   39°56′40″E
temp.,
°C
wind,
m/s
gust,
m/s
humid.,
%
clouds,
%
prec.,
mm/h
press.,
hPa
HPBL,
m
1 march, mon
mon100:00+1w249899 0.1 1019260
03:00+1w2399100 0.3 1020151
06:000nw3598100 0.9 1021264
09:000nnw2398100 1.2 1023168
12:00+1nnw2387100 0.2 1025417
15:00+3n238298 0.5 1025515
18:00+2nne3583100 0.4 1026252
21:000nne128594 0.4 102822
2 march, tue
tue200:000nne118391 0.0 102889
03:00−2w228775 0.0 102834
06:00−2wsw358527 0.0 1026186
09:00+1w6107444 0.0 1026777
12:00+3wsw8116159 0.0 1023990
15:00+4wsw9136380 0.0 1020912
18:00+2wsw71474100 0.0 1017704
21:00+2wsw91677100 0.0 1016718
3 march, wed
wed300:00+2w71397100 0.4 1014624
03:00+1wnw61097100 2.1 1012490
06:00+1nw61097100 1.9 1012539
09:00+1nnw61192100 2.4 1015682
12:00+2nnw7107290 0.1 10181195
15:00+3nw8115795 0.2 10191734
18:00+1nw6116597 0.1 1020802
21:00−1nw4117148 0.1 1023512
4 march, thu
thu400:00−1w36750 0.0 1023179
03:00−1wsw48750 0.0 1024234
06:00−1wsw59800 0.0 1023337
09:00+1wsw711710 0.0 1023578
12:00+5wsw8105416 0.0 10211001
15:00+6wsw8125211 0.0 10191192
18:00+3sw713690 0.0 1017449
21:00+1sw816770 0.0 1017476
5 march, fri
fri500:00+1sw8177521 0.0 1016574
03:00+2sw8167960 0.0 1015547
06:00+1sw9177954 0.0 1015464
09:00+3wsw10158027 0.0 1015636
12:00+6wsw8127250 0.0 1015921
15:00+6wsw8127375 0.0 10151086
18:00+5sw6117894 0.0 1015594
21:00+3sw5128683 0.0 1015374